Location: *
(27.6667°N, 0.3000°E)
Time: 16:48:43
(UTC+00:00)

Daily predictions for brighter satellites

Satellite Brightness Start Highest point End
(mag) Time Altitude Azimuth Time Altitude Azimuth Time Altitude Azimuth
FUSE 4.2 17:43:16 10° WSW 17:48:32 63° S 17:53:50 10° E
Cosmos 2285 Rocket 4.5 17:43:31 10° N 17:49:31 40° ENE 17:55:26 10° SE
SMAP 3.5 17:45:36 10° S 17:50:12 71° WSW 17:54:51 10° NNW
Cosmos 1844 Rocket 3.8 17:44:53 10° SW 17:50:20 49° WNW 17:55:48 10° N
YAOGAN 1 3.9 17:47:53 10° ESE 17:50:58 19° ENE 17:54:03 10° NNE
YAOGAN 6 3.8 17:50:12 10° SE 17:53:09 23° ENE 17:56:04 10° NNE
Delta 2 Rocket 3.6 17:50:24 10° SW 17:53:39 36° SSE 17:56:46 10° E
SKYMED 2 3.5 17:51:15 10° NNE 17:55:36 76° ESE 17:59:55 10° S
Meteor 1-16 Rocket 4.2 17:50:32 10° S 17:56:07 62° E 18:01:33 10° NNE
OAO 1 Rocket 4.5 17:56:26 10° WNW 18:01:45 86° NNE 18:07:04 10° ESE
Cosmos 1908 4.1 17:58:37 10° SSE 18:01:59 28° E 18:05:21 10° NNE
COBE Rocket 4.3 17:57:14 10° N 18:02:22 74° WNW 18:07:21 10° SSW
Cosmos 1726 Rocket 3.7 17:59:16 10° S 18:03:40 82° W 18:08:05 10° N
Lacrosse 5 rocket 3.1 18:04:50 10° NNE 18:07:00 14° NE 18:08:33 12° ENE
Cosmos 2278 Rocket 2.5 18:03:42 10° S 18:09:03 45° ESE 18:14:26 10° NNE
Cosmos 2228 3.8 18:08:46 10° SSW 18:13:04 56° W 18:17:21 10° N
Okean-O 3.5 18:10:49 10° S 18:15:09 55° W 18:19:30 10° NNW
Cosmos 2058 Rocket 3.0 18:11:57 10° S 18:16:19 87° E 18:20:40 10° N
CZ-4 R/B 1.4 18:14:18 10° SSE 18:18:18 58° ENE 18:22:24 10° N
Envisat 3.0 18:14:48 10° SSE 18:19:53 89° ENE 18:24:58 10° NNW
Meteor 1-21 Rocket 4.4 18:14:47 10° N 18:20:37 80° W 18:26:19 10° S
CZ-4 R/B 4.3 18:16:34 10° SSE 18:20:38 67° ENE 18:24:43 10° N
Cosmos 1328 4.4 18:17:35 10° NNE 18:21:11 33° E 18:24:45 10° SSE
CZ-4C R/B 3.1 18:14:38 10° NNW 18:22:26 79° ENE 18:30:53 10° SSE
Delta 2 Rocket 4.5 18:20:50 10° SW 18:26:28 43° SSE 18:30:31 19° E
Abrixas rocket 4.4 18:27:53 10° W 18:30:15 20° NW 18:32:37 10° NNE
Cosmos 1356 4.1 18:26:56 10° SSW 18:30:17 57° W 18:33:41 10° N
OAO 3 Rocket 4.3 18:26:50 10° WNW 18:31:22 36° N 18:34:26 18° NE
CSL-04 Rocket 3.6 18:29:23 10° SSE 18:34:54 70° ENE 18:40:24 10° N
Cosmos 1727 Rocket 4.2 18:30:21 10° SSE 18:36:13 46° E 18:42:04 10° NNE
Cosmos 1605 Rocket 4.1 18:33:22 10° N 18:39:18 48° E 18:45:08 10° SSE
NOAA 11 4.5 18:35:20 10° SE 18:40:26 43° ENE 18:45:33 10° N
Meteosat 1 Rocket2 2.7 18:38:19 10° WSW 18:41:53 61° SSE 18:43:04 38° ESE
ATLAS 3B R/B 3.7 18:37:37 10° SSE 18:42:29 22° ESE 18:42:29 22° ESE
CZ-2D R/B 3.5 18:42:23 26° SE 18:44:07 44° ENE 18:47:47 10° N
ADEOS Rocket 4.1 18:39:00 10° NE 18:45:12 28° E 18:50:58 10° SSE
OAO 2 Rocket 4.3 18:41:56 10° WNW 18:46:52 38° N 18:49:01 27° NE
Cosmos 1726 4.0 18:44:49 10° SW 18:48:06 31° W 18:51:23 10° NNW
Cosmos 1934 Rocket 4.2 18:45:38 10° N 18:51:58 78° W 18:58:20 10° S
CENTAUR R/B 3.5 18:51:20 10° SSE 18:54:06 22° SE 18:54:06 22° SE
SL-4 R/B 2.9 18:53:51 10° NNW 18:56:20 29° N 18:56:20 29° N
Cosmos 1833 Rocket 4.2 18:57:39 10° NNE 18:59:52 19° NNE 18:59:52 19° NNE
Ariane Rocket 3.0 18:59:49 27° SE 19:02:29 58° ENE 19:07:29 10° N
USA 238 DEB 3.7 18:57:03 10° SSW 19:03:40 79° WNW 19:10:29 10° NNE
USA 238 3.7 18:57:08 10° SSW 19:03:47 79° WNW 19:10:35 10° NNE
Cosmos 1242 Rocket 3.9 19:04:25 10° NNW 19:07:53 41° W 19:11:19 10° SSW
EO 1 Delta rocket 4.4 19:04:12 10° S 19:08:59 56° W 19:13:30 10° NNW
SL-24 R/B 4.4 19:04:29 10° NNE 19:10:05 69° E 19:14:45 10° S
Cosmos 1703 4.1 19:07:49 10° NNW 19:11:37 50° W 19:15:22 10° SSW
BREEZE-M DEB (TANK) 3.5 19:08:44 10° SW 19:12:01 80° SE 19:15:11 33° NE
GPS 2-12 Rocket1 4.2 19:09:15 10° WSW 19:13:16 30° S 19:13:19 30° S
ASTRO E2 4.4 19:11:28 10° W 19:14:45 24° SSW 19:15:17 24° SSW
Cosmos 1812 Rocket 3.8 19:13:42 10° SSW 19:18:03 66° W 19:22:27 10° N
USA 234 3.1 19:17:27 40° NE 19:20:05 78° SE 19:26:37 10° SW
Cosmos 44 4.3 19:15:49 10° S 19:18:54 34° S 19:18:54 34° S
Atlas Centaur 2 4.0 19:17:08 10° W 19:21:10 19° SW 19:23:42 14° S
Cosmos 2082 Rocket 4.3 19:17:30 10° N 19:18:18 13° NNE 19:18:18 13° NNE
COSMOS 2406 3.1 19:17:52 10° NNW 19:23:39 89° WSW 19:25:12 51° SSE
IRS-1A Rocket 4.1 19:27:09 55° SSE 19:28:27 89° WSW 19:33:58 10° NNW
NOSS 3-2 (A) 3.8 19:24:55 10° SW 19:30:20 55° WNW 19:33:54 23° N
Cosmos 1939 Rocket 4.0 19:32:15 40° W 19:32:15 40° W 19:35:57 10° NNW
Cosmos 1153 Rocket 4.3 19:26:19 10° N 19:32:28 89° W 19:35:10 36° S
Cosmos 1777 Rocket 4.3 19:28:17 10° NNW 19:32:30 59° NNW 19:32:30 59° NNW
FUSE 4.3 19:29:30 10° W 19:34:14 57° SW 19:34:14 57° SW
Lacrosse 5 rocket 3.4 19:42:27 10° NW 19:44:15 24° WNW 19:44:15 24° WNW
Cosmos 839 Rocket 4.5 19:45:20 10° NNW 19:51:50 70° WSW 19:53:38 52° S
NOSS 3-2 (C) 3.7 19:47:13 10° SW 19:52:14 58° W 19:52:14 58° W
H-2A R/B 4.0 18:45:30 10° WSW 20:01:34 85° NNW 20:04:27 61° ENE
CZ-3B R/B 4.3 19:48:07 10° W 20:10:48 78° SSW 20:15:41 59° SE
ADEOS Rocket 4.3 20:23:38 10° N 20:30:41 44° WNW 20:37:13 10° SW
ATLAS 3B R/B 4.1 20:26:22 10° SW 20:29:51 30° WSW 20:29:51 30° WSW
